User: anonymous   Login
Location: Kitt Peak
(31.9639°N, 111.5992°W)
Time: 04:58:36
(UTC-07:00)
Language:

DUCHIFAT 1 - Orbit

View from above orbital plane
View from above orbital plane
View from above satellite
View from above satellite

Ground track
Ground track

The orbit data is extracted from the following two-line orbital elements,

1 40021U 14033M   24260.93565726  .00029034  00000-0  17154-2 0  9993
2 40021  98.0964 249.7566 0014462 139.9289 220.3009 15.11364721557961
Epoch (UTC): 16 September 2024 22:27:20
Eccentricity: 0.0014462
inclination: 98.0964°
perigee height: 522 km
apogee height: 542 km
right ascension of ascending node: 249.7566°
argument of perigee: 139.9289°
revolutions per day: 15.11364721
mean anomaly at epoch: 220.3009°
orbit number at epoch: 55796

The dashed part of the orbit path shows where the satellite is in the earth's shadow,  

DLR